Wind_Speed
23 24 25 26 26 27 28 29 29 30 31 33 34 35 37 38 40 42 44 46 48 50 52 54 56 57 58 59 60 59 60 60 60 60 60 60 59 60 60 60 61 62 62 62 62 62 63 64 64 64 64 64 64 63 61 61 61 61 62 63 65 63 60 60 58 53 46 40 41 40 33 31 40 41 39 46 49 44 42 44 45 44 39 39 45 42 35 34
23 24 25 26 26 27 28 28 29 30 31 32 34 35 36 38 40 41 43 45 47 49 50 52 54 56 58 59 61 62 62 62 62 62 61 61 61 61 61 60 60 62 62 63 63 63 63 63 64 65 65 65 65 65 63 63 65 64 64 65 66 64 62 62 58 55 51 45 44 44 41 35 43 47 40 43 49 45 41 40 43 44 42 44 44 40 39 37
25 25 25 25 26 26 27 28 29 30 31 32 33 35 36 38 40 42 43 45 47 48 50 52 53 55 56 58 60 61 63 64 65 64 63 63 62 62 62 62 60 61 62 63 64 64 65 63 64 65 65 66 66 66 65 66 68 66 66 67 67 64 63 62 58 56 54 51 50 49 49 41 40 48 44 42 46 45 42 40 41 41 43 46 44 42 42 38
27 27 27 27 27 27 28 29 29 30 31 32 33 34 36 38 40 42 44 46 47 49 51 52 54 56 57 58 59 61 62 64 66 65 66 66 64 64 64 64 62 62 63 63 64 64 65 65 65 65 65 66 66 67 67 68 70 67 68 68 65 64 64 62 59 59 55 54 56 53 53 50 43 46 46 45 45 43 42 42 42 41 41 44 44 43 42 39
29 29 29 30 30 31 31 31 31 32 32 33 33 34 35 37 39 41 43 45 47 49 51 53 55 56 58 59 60 61 62 63 65 64 66 67 67 67 66 66 64 63 64 64 64 64 64 65 66 67 65 65 66 67 68 69 70 70 69 68 65 65 65 64 61 60 58 58 59 56 54 53 50 48 48 49 48 44 42 43 40 40 41 43 47 46 41 38
34 33 33 33 33 34 34 34 34 34 33 33 33 33 34 35 37 39 41 44 46 48 50 52 54 55 57 59 61 62 63 65 66 64 65 67 68 69 69 68 67 66 65 65 65 64 64 65 66 67 67 66 66 67 67 68 70 71 69 66 65 66 66 64 62 60 61 61 60 58 57 56 54 52 50 50 51 48 44 46 40 37 40 44 50 46 38 39
38 38 38 37 37 37 36 36 35 35 34 34 33 33 33 34 36 37 39 41 43 45 48 50 53 54 55 57 59 61 62 64 68 67 65 66 67 69 70 70 70 68 67 67 67 66 65 66 66 66 66 67 67 67 67 67 69 70 68 66 66 67 67 65 64 63 65 66 64 62 61 59 55 53 52 49 54 52 46 48 44 40 47 50 50 44 37 40
39 40 40 41 42 41 40 39 37 36 35 35 34 33 33 34 34 35 36 38 40 42 44 47 49 51 53 55 56 58 59 61 67 69 67 67 68 68 70 71 71 71 70 69 68 68 67 66 66 66 66 67 67 67 67 68 69 69 66 66 67 67 67 68 66 65 68 69 67 64 60 56 54 55 54 51 58 57 49 47 44 48 56 50 45 43 40 40
39 39 40 41 43 44 43 42 40 39 37 36 35 34 34 34 34 34 35 36 37 39 41 43 45 48 50 52 53 54 55 57 62 67 67 68 69 69 69 71 72 72 72 72 71 70 69 67 66 66 66 66 66 67 67 69 70 69 66 66 66 66 67 69 67 66 70 71 67 63 58 55 56 58 57 58 61 59 54 50 46 53 56 45 43 45 44 41
39 39 39 40 42 43 43 43 41 40 38 36 34 33 33 33 33 34 34 35 36 37 39 40 41 43 45 47 49 50 52 55 59 63 64 66 69 70 70 70 71 71 72 73 73 72 71 69 68 66 67 66 66 67 67 69 70 68 67 68 67 65 66 69 68 69 71 70 65 61 58 57 58 60 61 63 61 59 60 55 51 56 52 44 45 46 46 43
39 39 39 40 41 41 41 40 39 38 37 36 34 33 33 33 33 33 33 34 34 36 37 38 39 39 40 41 43 46 49 52 55 59 61 62 66 68 70 71 71 71 72 73 74 74 73 71 70 69 69 68 67 69 68 68 69 68 69 70 68 65 66 70 69 66 68 67 63 60 59 59 60 62 64 63 61 61 63 59 55 56 51 48 48 46 49 45
40 39 39 40 40 40 39 38 37 36 36 36 36 35 35 35 35 34 33 32 32 34 34 36 37 37 38 37 39 43 46 49 52 55 59 60 62 65 68 70 71 71 71 72 73 74 75 74 73 73 71 69 69 68 67 67 68 67 69 70 68 66 67 72 69 63 64 65 63 60 58 59 60 62 63 61 62 63 62 60 58 57 54 53 52 49 51 49
40 40 40 39 39 38 36 35 34 34 34 36 36 36 36 36 36 34 33 31 31 31 31 33 34 36 37 37 39 43 45 48 51 54 57 60 61 62 64 67 70 71 71 72 72 73 75 76 76 74 71 71 69 67 66 67 67 65 68 70 68 67 69 72 68 63 64 64 62 60 58 57 56 57 59 59 61 62 60 59 59 58 57 56 56 53 53 54
41 40 40 39 37 36 34 33 32 32 33 34 36 36 36 37 35 33 31 30 29 30 31 32 34 36 37 38 41 44 46 48 51 53 57 60 62 63 63 65 68 69 71 72 72 73 75 76 77 75 73 73 69 67 68 67 66 66 68 70 68 67 69 70 68 64 65 65 61 60 59 55 52 53 55 56 58 58 58 58 57 57 57 56 57 56 56 57
42 41 40 38 36 34 32 30 30 30 32 34 35 36 37 36 33 31 30 29 29 31 32 34 35 38 39 40 42 45 47 48 49 51 55 59 62 64 66 67 67 68 70 71 72 73 74 75 76 76 74 74 71 70 71 68 67 67 67 69 67 66 67 67 67 66 66 65 61 61 61 56 53 52 51 54 56 55 55 55 54 53 54 55 56 56 56 58
42 41 39 37 34 32 30 29 28 29 32 34 35 36 36 34 31 30 30 30 31 33 35 38 39 41 42 43 45 46 46 47 48 49 50 54 60 64 67 69 68 68 67 69 71 72 74 74 75 75 75 76 74 72 72 69 68 69 67 67 66 64 64 64 67 68 65 63 63 62 62 59 56 53 51 53 53 51 51 50 49 49 50 52 54 54 55 56
42 40 38 35 32 29 28 27 27 29 32 34 36 36 34 31 30 30 30 31 35 38 40 42 43 44 45 45 45 44 44 43 43 45 46 48 54 60 66 69 70 69 67 67 69 72 73 73 74 75 76 78 76 74 74 72 71 70 68 66 65 63 62 61 64 67 65 63 63 63 62 61 57 54 53 53 52 50 48 46 45 46 46 48 50 51 52 52
42 40 37 34 30 28 27 26 27 29 33 35 35 34 31 30 30 32 32 34 38 41 43 44 44 44 44 45 43 42 42 40 39 41 42 44 48 53 59 66 70 70 68 67 70 73 73 73 74 74 76 79 78 78 78 76 73 71 69 66 64 62 61 60 59 64 68 63 61 63 63 60 56 56 54 51 52 50 46 44 43 45 46 47 48 48 50 49
41 39 36 32 29 27 25 26 27 31 33 34 34 31 30 29 31 33 33 34 37 39 42 44 43 41 41 44 45 43 41 39 38 39 39 41 43 45 50 58 66 69 70 69 69 72 73 73 75 77 78 80 79 79 79 74 71 71 70 66 63 61 60 61 58 59 68 64 58 60 61 58 54 54 52 49 51 51 46 44 44 47 49 49 48 46 48 47
40 37 34 30 27 25 25 26 28 31 32 32 31 29 29 30 31 33 32 32 35 37 39 43 44 42 40 42 44 45 44 40 38 38 39 39 39 40 43 49 58 66 69 70 69 71 73 74 76 79 79 78 77 77 76 72 70 70 68 66 65 61 58 61 57 55 65 67 57 55 56 56 53 51 50 48 50 51 48 46 47 49 51 52 49 47 47 45
40 36 32 28 26 24 25 27 29 30 31 31 29 28 28 29 30 33 33 32 34 36 38 40 42 41 40 41 42 44 45 42 39 37 38 37 36 37 39 39 47 59 65 67 69 70 72 75 77 77 76 75 75 76 76 73 71 68 67 67 66 63 59 58 55 53 63 67 54 47 50 54 54 50 49 49 50 50 48 46 48 50 52 53 50 47 46 44
39 35 30 27 25 24 25 27 29 30 32 31 28 26 27 29 31 33 34 32 31 35 37 38 39 39 38 39 40 41 41 40 38 37 34 34 34 34 32 32 38 49 58 63 68 71 74 76 75 75 74 73 74 75 75 73 71 69 69 68 67 67 61 51 53 57 62 63 50 43 47 50 52 50 47 49 50 49 49 47 48 50 52 53 50 47 46 46
38 33 29 25 24 24 26 28 30 31 32 31 26 25 28 30 32 33 35 33 30 33 36 35 35 36 36 36 36 36 36 35 33 33 31 30 32 32 27 27 31 39 50 60 67 71 74 74 72 72 72 72 73 74 73 72 71 71 73 70 68 69 62 54 57 61 60 58 49 43 46 48 49 49 47 49 50 49 50 48 48 50 52 52 49 47 46 47
37 32 28 24 23 25 28 29 30 31 32 29 26 26 29 31 32 34 34 33 30 29 31 30 31 33 34 35 34 33 31 30 28 29 30 28 29 30 24 23 27 33 42 52 62 69 70 69 70 71 71 71 72 72 72 72 71 72 74 70 67 66 62 59 58 58 58 55 48 42 44 49 48 48 47 47 49 50 50 49 48 50 52 50 48 47 47 48
36 31 27 23 22 25 29 30 30 32 31 28 25 26 29 31 32 33 32 31 27 26 26 27 29 31 32 31 31 30 27 25 25 26 28 26 26 24 17 21 27 29 34 44 56 65 68 66 68 69 69 69 70 71 72 71 70 72 74 69 67 64 61 59 53 53 59 55 50 45 44 49 47 46 46 45 46 48 49 50 48 49 51 50 48 48 48 48
35 30 26 23 22 25 29 31 30 31 29 26 25 27 28 30 31 30 28 25 23 23 24 25 27 28 29 28 27 26 24 23 23 24 26 25 23 19 15 21 26 27 30 39 48 59 68 67 67 67 66 68 69 70 71 69 68 71 72 67 66 61 53 54 52 53 60 56 51 48 45 47 46 44 45 43 43 46 47 48 47 48 50 49 47 47 47 47
34 29 25 22 22 24 28 31 31 30 27 25 26 27 28 29 29 26 24 22 21 22 23 24 26 27 28 26 23 22 22 23 23 23 24 22 19 17 15 19 25 26 27 35 45 57 65 61 59 64 65 67 68 69 71 69 67 70 71 67 67 62 53 53 54 54 58 54 50 49 45 45 46 43 43 42 41 43 44 45 46 48 48 49 47 45 45 44
33 28 24 22 23 25 28 29 30 29 26 25 26 27 28 28 27 23 21 21 22 23 24 25 25 25 26 25 23 22 23 23 22 21 21 20 17 15 14 19 25 26 25 33 44 55 61 52 49 59 63 65 67 69 70 68 67 67 67 67 67 64 58 55 50 49 52 51 50 49 47 46 48 45 42 42 42 43 44 43 44 45 45 46 45 44 44 43
33 27 24 22 23 26 28 29 30 28 25 25 26 27 27 27 25 23 20 21 23 25 26 26 26 25 25 25 23 23 23 22 20 20 20 20 16 12 14 20 27 27 24 31 40 48 56 50 44 54 62 64 65 66 65 67 68 64 61 64 64 60 58 56 51 47 49 51 51 50 49 49 49 44 39 43 45 44 43 42 42 41 42 44 45 43 44 43
32 27 23 22 23 26 28 29 29 27 25 25 26 26 26 26 25 23 21 21 24 26 27 29 28 26 24 23 23 22 22 20 19 18 18 18 15 11 14 21 30 30 24 30 38 40 45 47 47 54 61 63 63 63 64 66 68 63 57 60 61 57 55 56 54 48 47 53 53 50 49 49 49 43 39 43 46 43 42 41 39 39 41 43 43 43 44 43
32 27 23 22 24 27 29 29 29 27 24 25 26 26 26 25 23 22 23 23 24 25 28 31 29 27 24 21 21 19 18 18 17 17 16 16 13 10 15 22 32 33 27 32 40 37 37 47 53 55 59 60 58 62 63 62 66 61 48 48 56 59 53 51 52 49 49 56 55 50 48 51 51 45 41 44 47 43 40 38 37 38 41 41 40 41 43 42
31 26 23 22 24 28 29 30 30 26 24 26 27 26 26 25 22 21 22 24 25 25 28 31 30 27 24 19 19 16 16 17 15 15 14 15 13 10 15 22 32 34 29 33 38 36 37 48 54 52 57 59 54 56 56 53 61 60 43 41 53 59 56 52 53 52 53 55 53 51 51 54 51 44 41 41 44 44 37 35 38 38 38 37 36 39 41 40
31 26 23 23 24 28 29 29 29 25 24 26 27 26 25 25 22 21 21 23 26 26 28 31 29 27 22 17 20 17 15 15 13 11 10 13 13 12 18 23 31 33 28 30 35 35 35 43 50 48 53 60 53 51 52 51 60 59 48 47 55 59 60 57 55 53 52 52 52 50 53 56 50 45 43 37 40 45 39 37 40 36 35 35 34 37 39 39
31 25 23 23 24 27 28 28 28 25 25 26 26 26 25 24 22 20 20 22 26 25 27 29 28 27 22 15 19 18 14 12 8 7 9 14 15 16 22 27 33 33 28 29 32 34 34 38 48 45 45 57 58 52 51 55 60 56 51 52 53 56 60 58 53 52 51 51 51 49 51 55 48 44 46 43 44 48 41 39 39 34 34 35 33 36 38 38
30 25 23 23 24 26 28 28 26 24 25 26 26 26 25 24 23 21 20 22 25 23 24 27 26 27 22 14 15 17 15 13 7 6 10 14 15 17 24 29 34 34 30 30 31 31 31 33 43 45 41 49 58 54 50 53 55 50 47 45 43 46 51 52 49 48 48 47 48 50 51 52 49 48 50 48 50 48 38 35 36 33 34 34 34 37 37 37
30 25 23 24 25 27 28 28 26 23 24 26 26 26 25 25 24 22 21 22 25 22 22 25 24 25 25 18 14 17 18 15 9 7 8 12 13 16 26 31 34 33 29 30 32 30 29 28 34 45 45 45 55 56 52 54 51 45 46 44 37 32 34 45 48 45 47 45 45 52 54 51 51 52 53 51 49 43 33 31 34 33 33 34 34 35 35 37
29 25 24 24 26 27 28 28 25 23 24 26 26 25 25 24 23 21 21 23 24 23 22 25 24 24 27 20 13 17 19 15 7 4 7 10 12 19 29 33 33 32 27 28 32 28 27 27 29 42 49 47 52 54 51 53 46 41 50 51 38 27 22 35 46 46 47 45 41 49 54 51 48 48 52 51 44 37 31 32 36 34 33 33 32 32 35 37
29 23 23 24 26 28 29 27 24 23 24 25 25 24 23 24 23 21 21 23 23 23 23 24 24 24 24 19 13 16 17 12 7 2 8 8 11 20 31 34 33 32 28 28 31 26 25 28 28 37 49 51 54 50 44 47 41 34 43 48 42 33 23 25 38 47 50 44 40 46 51 51 47 46 52 49 40 36 35 35 36 34 32 32 30 31 35 36
28 22 21 24 26 28 29 27 24 22 23 24 23 23 23 23 23 22 21 22 22 23 23 23 22 23 22 17 15 15 13 9 8 2 5 4 8 21 31 32 31 32 28 27 28 23 22 26 26 33 45 51 54 51 44 46 43 31 30 38 42 33 21 21 32 42 48 47 42 41 44 49 48 46 50 48 39 36 37 36 35 33 31 30 30 32 35 37
28 23 20 23 26 28 29 28 26 23 23 23 22 22 22 22 23 22 21 21 22 21 21 20 20 20 20 16 13 11 9 7 8 5 4 4 8 22 31 31 31 30 27 27 28 25 23 25 24 30 42 48 52 54 51 51 49 41 34 40 44 34 23 25 30 32 39 47 46 36 29 36 45 47 48 45 38 34 35 35 33 31 30 29 31 33 35 37
28 23 20 21 26 29 29 27 26 23 22 22 22 21 22 22 23 23 20 20 21 20 19 19 18 17 19 18 13 10 9 8 9 8 5 5 8 20 30 31 29 27 25 26 27 25 25 24 21 28 41 47 49 53 54 52 49 45 41 41 42 40 33 30 30 31 31 37 45 43 27 19 30 42 45 40 34 31 32 33 32 30 30 30 32 34 34 34
27 22 20 21 24 28 29 27 25 23 22 22 22 21 21 21 22 23 21 19 20 20 19 19 18 16 17 17 15 11 9 8 7 6 6 4 10 20 28 29 27 28 26 24 24 23 24 23 20 27 38 44 46 50 52 50 45 39 36 33 29 34 37 31 29 35 35 27 31 39 32 22 25 34 39 38 32 30 32 34 32 31 32 33 34 35 34 33
27 21 19 21 24 26 27 25 22 22 22 23 22 22 22 22 21 21 21 19 19 20 18 17 18 17 14 15 14 13 11 8 6 5 6 7 13 22 27 26 26 28 26 23 25 25 23 21 19 25 35 40 42 46 47 45 40 35 34 32 26 29 36 32 24 31 38 27 19 21 25 30 34 29 29 35 35 33 35 35 34 34 34 35 35 33 33 33
29 21 17 19 23 26 26 24 21 20 21 21 21 21 22 22 21 20 21 22 19 18 17 16 16 16 15 14 13 12 12 9 7 6 8 9 15 21 23 23 25 27 25 23 26 26 22 20 21 26 36 40 39 43 46 44 40 40 41 39 32 28 32 28 17 24 36 29 16 12 15 29 35 27 25 33 36 36 36 35 35 35 34 34 34 32 33 35
29 23 19 19 22 25 25 23 20 18 18 19 20 21 21 20 20 19 21 23 21 18 16 15 14 13 15 15 12 11 12 11 9 7 9 9 13 20 21 21 24 27 25 24 28 29 24 21 23 26 34 39 40 44 48 49 48 49 51 45 35 30 34 33 19 18 33 36 22 12 14 25 30 25 27 33 36 36 35 34 35 34 34 34 34 34 35 36
28 22 20 20 23 27 26 24 22 19 18 19 20 21 21 20 18 16 18 21 21 17 14 14 13 10 12 13 11 10 11 13 12 6 11 11 14 20 19 20 24 25 24 25 30 30 23 20 24 26 26 31 38 42 45 50 52 53 52 48 40 36 39 39 26 14 23 34 28 19 19 25 26 26 29 32 35 36 34 34 34 33 33 34 33 34 35 35
29 21 18 19 23 27 27 25 24 22 20 20 19 20 21 21 17 14 16 20 20 14 12 12 11 8 8 10 11 10 10 12 13 6 10 14 16 18 18 20 23 22 24 27 29 27 20 18 22 24 22 24 32 38 42 47 49 47 47 46 42 36 37 38 29 18 17 23 26 24 22 22 24 28 31 32 34 35 35 34 34 33 33 33 33 35 35 35
31 23 18 18 22 25 26 24 23 21 20 20 19 20 22 22 18 14 15 19 17 11 9 10 9 7 7 7 10 11 9 11 11 6 10 15 17 18 17 20 22 22 25 29 29 25 20 17 18 20 22 24 27 33 40 45 43 37 37 40 37 34 38 41 33 22 16 20 28 28 23 23 24 25 28 32 32 33 34 35 34 33 33 33 34 35 35 35
31 23 19 19 22 25 24 22 22 20 19 19 20 22 23 21 16 15 16 16 14 11 10 11 11 10 8 6 6 8 6 6 8 5 12 18 20 20 19 19 23 25 26 29 30 25 20 18 18 20 22 23 23 24 33 41 40 36 36 37 36 35 39 42 36 25 18 22 32 34 28 25 23 20 25 31 31 31 33 33 33 33 33 33 34 35 35 35
29 22 18 18 22 24 22 22 21 19 18 19 21 23 22 18 15 16 17 15 13 13 13 14 16 14 11 10 8 7 4 4 5 4 13 20 20 23 22 20 24 26 27 30 30 23 20 21 22 24 24 23 23 22 26 34 38 39 39 36 36 38 39 41 41 34 28 29 36 38 33 28 23 21 26 30 29 30 32 32 32 33 33 34 35 35 35 34
31 22 17 16 20 23 22 22 22 19 18 19 20 21 19 16 15 15 15 15 15 16 16 17 20 18 15 14 11 8 5 2 3 5 15 22 22 25 25 22 25 29 30 32 27 20 22 25 25 26 26 24 25 25 27 31 34 36 38 37 39 43 45 45 45 41 35 32 34 34 31 28 26 23 25 28 27 28 30 31 32 33 33 34 34 34 34 33
32 23 17 16 19 22 21 21 22 19 17 18 20 20 17 15 14 13 12 14 15 16 17 20 22 20 16 14 9 5 4 3 4 8 16 22 22 24 25 25 28 29 31 31 24 19 25 27 24 25 25 23 24 25 26 29 31 33 38 40 40 42 43 43 41 37 33 30 31 33 29 26 26 24 25 27 27 28 30 31 32 33 34 34 34 34 34 33
Wind_Direction
304 299 296 292 290 287 285 282 280 278 276 273 271 268 266 264 262 261 259 258 258 257 256 254 253 251 249 248 247 246 245 244 243 241 240 239 239 238 237 236 237 237 236 235 233 232 231 231 231 230 230 230 231 231 231 233 232 232 232 233 234 233 233 234 234 231 231 232 231 233 229 235 247 236 225 229 228 224 230 237 238 241 239 236 243 247 247 246
306 302 298 295 292 289 286 283 280 278 276 273 271 269 267 265 263 261 259 258 257 256 255 254 254 253 251 250 248 247 246 245 244 243 241 240 239 238 238 236 235 236 236 236 235 234 232 231 231 230 230 230 230 230 230 232 232 232 232 233 234 233 234 234 234 235 233 232 230 233 233 235 249 244 229 232 232 226 230 239 240 241 241 242 246 248 248 247
310 306 302 299 295 292 289 286 283 280 277 274 272 270 268 266 264 262 260 259 257 255 254 253 252 252 251 251 250 249 247 246 244 243 242 241 240 239 238 236 234 235 235 235 235 235 234 232 232 231 230 230 230 230 229 232 232 231 232 232 232 233 235 236 234 236 236 235 232 231 233 231 241 245 234 231 234 231 230 236 241 241 242 245 246 245 247 247
314 311 307 304 301 298 295 292 289 286 282 278 275 271 268 265 264 263 261 260 258 257 255 254 252 251 250 250 249 249 248 247 245 244 243 242 240 239 239 238 236 234 234 234 234 235 235 234 233 232 231 230 230 230 229 230 232 231 232 231 231 233 235 236 236 236 237 238 234 230 233 232 233 242 239 231 232 235 234 235 239 241 239 244 245 241 242 244
319 315 312 310 307 305 302 299 296 292 288 284 280 275 271 267 264 262 261 260 259 258 257 255 254 253 251 250 249 248 247 247 246 244 244 242 241 240 239 238 237 236 235 234 234 233 234 234 234 233 232 231 230 231 230 229 232 232 232 231 230 232 235 236 237 237 237 238 236 231 231 234 234 237 240 237 232 231 235 235 236 242 240 241 245 239 237 241
323 320 317 314 312 309 307 305 302 298 293 289 285 280 276 272 268 265 263 261 260 258 258 257 256 255 254 252 250 249 248 248 246 243 243 243 242 241 239 238 236 236 235 234 234 232 232 232 233 234 232 232 230 231 231 230 231 232 232 231 230 232 234 235 236 238 238 238 237 232 229 232 233 233 237 240 235 227 229 232 227 237 239 236 243 242 236 239
326 323 321 319 317 314 311 309 305 301 297 293 289 284 280 276 272 269 266 264 262 260 258 258 257 257 256 255 253 251 250 249 247 243 243 242 241 241 240 238 236 235 235 234 234 233 232 231 232 233 233 233 232 231 232 232 232 233 232 231 231 232 234 235 235 237 238 236 234 232 228 229 231 232 233 238 241 230 224 232 227 230 236 232 239 244 238 238
326 323 322 321 320 318 315 312 309 306 302 299 296 292 289 286 282 278 274 271 267 264 261 258 257 257 257 256 256 254 252 251 248 245 243 242 240 241 240 239 237 235 234 233 234 234 232 232 231 231 232 232 232 232 232 233 233 233 233 232 232 233 233 234 234 236 238 236 233 232 229 227 230 234 232 234 241 234 223 230 230 231 238 237 240 245 240 237
326 323 321 320 319 317 316 314 312 310 307 305 303 301 298 296 293 290 286 281 277 272 267 263 259 257 256 256 256 257 255 253 251 247 246 244 241 240 239 239 238 236 234 232 232 233 232 232 231 231 231 231 231 232 232 233 234 233 233 233 233 233 234 234 233 235 238 237 234 233 230 228 231 234 233 232 236 236 229 227 229 235 239 241 242 243 242 238
326 324 321 320 318 316 314 313 312 311 309 308 306 305 303 301 298 295 291 287 283 278 274 271 266 262 259 257 257 258 257 255 252 250 248 246 243 240 239 238 238 237 235 233 231 231 231 231 231 231 231 230 230 230 231 232 234 234 234 234 233 232 235 236 233 232 236 238 236 234 231 230 232 234 233 232 234 237 236 229 229 238 240 241 242 243 244 240
327 324 322 320 317 314 312 310 309 307 306 306 305 304 303 301 299 296 292 287 283 279 277 274 272 269 265 261 259 259 259 257 254 252 250 249 246 243 240 238 237 236 235 234 232 230 230 230 230 230 230 229 229 229 229 231 232 233 234 233 232 231 234 236 233 231 235 238 238 236 233 231 231 232 232 232 234 236 237 234 231 237 240 242 243 243 246 242
328 325 322 319 316 313 311 308 306 304 302 302 302 302 302 301 300 298 294 289 285 281 278 276 274 272 270 268 265 263 261 259 257 254 252 250 248 245 242 240 237 236 235 234 232 230 229 228 228 229 229 229 229 229 229 230 231 232 234 235 233 232 234 236 234 232 234 236 238 237 235 232 229 231 232 233 235 235 236 236 235 238 239 242 244 245 248 246
329 325 322 319 316 313 310 307 304 302 301 300 300 301 302 301 301 299 296 292 289 285 282 279 278 277 276 275 273 272 269 265 262 259 255 252 250 247 244 242 239 237 235 234 232 231 229 228 228 228 228 229 229 230 229 229 230 230 233 235 234 233 233 236 236 233 235 235 236 237 236 232 229 230 233 234 236 236 236 235 236 239 240 241 244 245 249 249
329 326 322 319 316 312 308 305 302 301 300 300 301 302 302 302 301 298 296 295 292 289 286 284 282 281 279 278 277 277 275 271 268 265 260 256 253 250 246 243 240 237 236 234 232 231 230 228 227 226 226 228 228 229 229 229 229 229 231 234 233 234 234 236 236 234 235 235 234 237 236 232 232 232 233 235 236 236 236 235 236 239 241 241 243 244 247 249
330 326 322 319 315 311 307 303 301 301 300 301 302 302 302 302 300 298 297 297 294 291 288 286 285 284 282 280 279 278 278 276 273 270 266 262 257 253 249 244 240 237 236 235 232 230 229 228 227 226 225 227 226 227 228 228 228 228 230 232 232 233 235 237 237 235 235 236 235 236 236 233 233 233 235 236 235 235 235 235 235 237 240 242 242 243 245 248
330 326 322 318 315 310 306 303 302 302 302 303 304 303 302 301 299 298 299 299 295 292 290 289 287 286 285 284 283 282 280 278 277 275 272 268 264 259 252 245 241 238 235 235 234 231 229 227 227 225 224 225 224 225 227 227 228 228 228 231 232 232 234 236 238 237 235 237 236 234 236 236 233 232 235 237 235 232 233 234 235 236 238 241 242 243 244 246
330 326 322 318 314 309 305 304 304 305 305 306 306 305 302 300 299 298 298 297 293 291 289 288 288 287 286 285 286 286 283 281 278 276 274 270 266 262 255 247 241 238 235 233 233 231 228 227 226 224 223 223 223 224 226 226 227 228 228 230 232 232 232 234 239 240 235 234 236 236 236 236 235 233 233 236 236 232 231 232 235 236 236 238 241 242 243 243
330 327 323 318 312 308 305 304 306 308 308 309 308 305 301 300 300 297 296 294 292 291 289 287 287 288 288 287 286 286 286 285 281 277 274 270 266 262 258 251 243 238 235 232 231 231 228 226 225 224 222 222 221 222 224 225 226 228 228 228 230 232 232 232 235 241 239 233 234 238 237 235 235 236 232 232 236 234 230 229 233 236 235 235 237 239 242 241
330 326 322 317 311 307 306 306 310 311 311 310 308 305 301 301 300 297 296 295 293 292 291 289 286 285 287 287 286 285 284 283 281 279 276 272 269 266 260 253 245 238 234 230 229 229 228 226 224 222 222 222 221 223 225 225 226 228 229 228 229 231 232 233 231 237 242 236 231 237 239 236 235 238 235 232 236 236 231 228 230 234 235 234 233 235 240 240
330 326 322 316 309 307 306 309 313 313 313 312 309 305 304 304 302 300 299 296 292 288 287 288 286 284 283 283 285 285 284 281 278 278 277 276 277 276 268 257 246 238 233 229 226 227 227 226 224 222 222 222 222 223 224 224 224 227 229 230 230 230 231 235 232 233 243 240 232 234 241 241 238 237 237 235 236 235 231 228 229 232 235 235 233 233 237 240
330 326 321 314 308 306 307 312 316 315 315 314 309 306 306 306 305 303 302 300 295 290 286 286 287 287 284 282 283 285 285 281 278 276 275 277 282 286 279 263 247 237 230 226 223 222 223 224 224 222 222 222 222 221 222 221 222 224 228 230 230 229 229 235 236 233 240 243 237 235 240 242 240 236 236 235 235 234 230 227 229 232 234 235 234 233 236 238
330 326 320 313 308 307 309 315 317 317 318 316 311 307 307 307 306 305 304 302 298 293 290 289 290 290 289 287 286 286 284 280 278 277 276 281 289 294 283 261 244 233 225 221 218 216 218 221 221 220 220 221 221 221 220 219 220 222 225 227 229 229 226 229 236 233 236 241 239 235 237 239 241 238 235 236 235 234 231 225 227 231 233 234 234 234 234 236
330 326 319 312 308 307 312 318 319 318 320 318 313 309 308 309 309 308 306 305 301 295 294 294 294 293 293 292 290 288 283 278 277 277 279 285 292 295 280 252 239 231 221 215 212 211 215 218 218 219 219 219 219 219 219 218 218 220 223 224 228 230 226 222 231 234 235 239 236 233 236 237 239 238 235 234 234 234 233 227 226 230 232 233 232 233 234 235
331 325 319 312 308 309 314 320 321 320 321 318 313 311 311 312 313 312 311 311 308 301 299 299 298 297 296 295 292 289 282 277 276 277 282 286 292 298 284 249 233 227 219 210 207 208 211 214 215 217 218 217 218 217 217 216 215 218 222 223 225 230 228 223 229 236 236 237 235 229 235 237 235 236 234 233 234 233 233 229 225 228 231 232 231 231 232 234
331 325 319 312 309 312 317 322 323 322 322 318 314 314 315 316 317 316 317 318 315 311 308 306 304 301 300 298 295 290 281 277 277 279 285 288 293 297 275 240 227 220 216 208 205 205 204 207 211 214 215 214 215 215 215 215 214 218 221 220 223 226 229 226 226 235 237 235 234 228 231 237 235 235 235 234 234 233 233 231 226 227 230 231 230 230 231 233
332 325 319 312 310 314 320 323 325 324 322 318 316 318 319 320 320 320 324 326 323 322 321 320 316 312 308 303 299 294 283 278 281 284 290 291 292 287 249 229 223 212 208 206 205 203 198 200 205 209 212 212 213 213 213 213 211 217 220 218 220 222 225 226 222 230 236 232 233 230 228 236 237 234 235 234 235 234 233 233 229 226 229 230 230 231 232 233
332 326 319 313 311 317 323 325 327 326 322 319 320 322 323 323 322 322 328 332 330 329 329 331 329 324 318 308 302 298 286 282 284 287 291 287 286 280 242 220 215 204 198 202 204 201 195 195 201 204 207 210 211 211 212 210 209 215 218 215 217 217 217 222 222 227 234 232 232 232 226 232 236 234 235 234 233 236 233 231 231 227 228 230 230 231 233 234
333 326 320 315 314 320 326 328 328 326 322 323 324 326 327 325 322 322 327 333 333 330 328 330 331 330 326 313 302 298 293 289 284 284 292 284 278 274 239 210 203 196 193 199 203 202 195 190 196 202 203 207 211 211 211 209 207 212 217 215 216 217 217 221 220 222 230 229 230 232 227 227 232 231 234 235 231 233 233 229 230 229 227 230 229 230 232 233
333 327 321 318 319 324 329 331 330 328 325 326 328 329 330 326 322 321 322 327 331 330 326 325 325 326 329 322 308 299 298 295 281 278 290 281 267 262 234 206 194 190 192 199 200 203 198 188 190 199 201 204 208 210 210 209 207 208 213 215 215 216 218 219 218 217 225 227 225 230 229 226 229 229 230 236 232 230 233 229 228 229 227 229 229 228 230 231
334 328 323 322 323 327 332 333 332 330 328 330 331 331 332 329 323 318 318 324 329 330 328 326 322 319 324 328 317 304 302 298 281 278 287 273 255 244 227 204 190 186 189 194 194 198 201 192 188 195 200 203 206 206 207 208 206 206 210 214 212 212 216 218 219 219 224 228 223 225 231 229 228 227 227 235 236 232 233 232 228 228 227 227 227 226 228 230
335 330 326 326 328 330 334 335 334 332 330 332 333 333 334 333 326 318 317 324 329 330 330 328 325 318 318 328 326 314 309 303 282 280 282 261 246 232 219 200 188 185 184 189 190 190 199 199 193 194 198 200 204 204 205 207 205 202 206 211 208 208 211 214 217 217 219 226 223 219 228 232 228 224 225 233 238 235 234 234 230 228 228 227 225 225 228 229
336 331 328 329 332 334 336 336 336 334 332 334 334 334 335 337 334 325 321 326 332 333 332 334 336 326 316 329 338 327 319 309 281 278 276 250 244 227 208 193 185 187 184 184 189 189 198 203 197 197 198 196 200 201 200 204 202 197 199 205 204 204 207 209 213 216 218 223 223 218 222 230 228 222 223 232 239 236 232 233 231 227 229 229 225 225 227 227
337 332 330 331 335 336 336 337 337 335 333 335 335 334 336 341 341 334 326 328 335 337 337 342 348 338 323 332 345 339 331 318 281 273 268 237 237 216 198 191 183 185 185 183 187 191 197 200 197 199 200 197 196 194 194 200 197 194 198 204 204 204 207 210 212 216 218 219 221 220 221 227 229 226 221 223 235 233 225 228 229 224 226 228 224 225 225 225
338 333 331 333 336 337 336 338 338 336 335 335 336 335 337 342 343 340 334 332 337 340 340 346 353 347 336 336 346 345 343 333 292 268 259 231 230 212 196 191 181 179 185 186 186 190 194 197 196 195 198 201 197 190 194 200 194 194 201 204 205 207 210 213 212 213 216 218 219 220 222 225 226 228 225 221 230 231 222 224 228 222 222 224 221 222 223 222
339 335 333 334 337 338 338 340 340 338 336 337 338 337 338 342 345 345 344 340 340 342 344 348 354 352 345 335 342 350 348 337 311 272 253 228 226 214 194 186 178 175 180 183 182 187 192 195 199 195 193 201 199 190 193 196 192 195 200 197 198 205 211 213 210 212 214 216 218 219 221 223 221 224 225 223 229 231 223 225 230 225 222 222 220 220 220 220
340 336 336 336 339 340 340 342 342 339 339 340 340 339 340 344 346 348 352 350 347 349 352 354 356 357 351 338 338 354 354 340 315 272 241 221 220 208 189 182 181 177 174 177 178 183 188 192 201 198 192 197 198 193 193 191 189 196 198 193 193 195 206 210 209 212 214 213 218 221 221 222 221 224 226 224 227 228 223 226 230 227 223 223 222 220 219 219
341 339 338 337 339 341 342 344 343 340 342 342 341 341 341 344 346 348 356 358 355 356 358 359 2 2 356 346 338 347 352 352 338 257 211 210 217 203 188 182 181 177 170 172 175 177 187 196 203 197 192 194 195 193 193 190 189 199 199 195 192 184 196 209 208 211 214 211 216 223 222 220 221 226 228 227 227 226 221 222 226 224 221 222 222 220 219 219
342 340 337 336 339 342 344 346 344 343 345 342 341 343 342 345 348 350 358 2 360 1 1 1 3 3 360 354 342 339 346 5 25 189 193 198 213 200 187 180 176 173 168 165 167 173 186 197 206 200 193 193 190 186 187 189 187 195 199 195 187 182 187 201 204 209 212 209 213 223 224 219 218 225 229 225 223 222 218 220 225 223 220 220 218 217 219 217
342 340 338 337 340 343 345 346 347 347 345 341 341 345 345 348 350 351 359 2 1 5 3 359 359 1 2 356 343 343 346 0 27 67 191 188 202 193 182 176 172 170 165 160 163 169 178 188 200 202 196 193 190 183 181 186 182 178 190 191 185 186 191 196 200 206 209 208 211 220 226 223 218 223 230 227 218 219 219 218 223 222 219 219 215 215 217 216
342 341 341 340 340 345 346 346 348 348 343 341 345 348 349 352 353 352 356 2 5 7 4 357 354 355 1 2 355 3 14 18 36 63 157 160 182 186 179 174 172 169 164 162 163 162 167 181 194 198 194 193 194 191 187 186 181 176 183 187 185 190 197 198 200 201 206 210 210 212 221 228 224 222 228 228 218 216 220 219 220 220 217 216 214 214 216 217
344 341 341 342 343 346 347 347 348 345 341 344 348 350 352 355 357 355 354 3 11 11 6 1 357 353 1 14 22 27 35 44 48 59 106 141 173 180 176 173 167 162 160 161 161 158 162 175 188 192 192 193 195 197 194 188 182 181 183 183 188 196 196 195 198 197 201 211 214 213 210 219 229 225 226 228 219 214 219 219 217 216 214 212 212 213 214 216
345 338 339 344 345 347 348 348 347 344 344 349 351 352 356 357 358 357 354 359 8 11 8 3 0 358 357 7 25 36 35 37 37 45 71 126 173 172 172 171 162 153 154 157 159 158 160 168 178 186 191 194 195 197 196 188 180 180 180 177 187 200 197 194 197 197 196 199 213 220 216 211 225 228 224 223 218 212 215 216 214 213 212 211 211 211 211 211
346 341 341 343 344 346 350 348 346 346 347 351 352 351 355 357 359 360 352 347 356 5 8 2 1 5 357 351 15 48 55 40 32 48 73 118 159 163 166 170 165 156 151 151 159 162 162 164 167 177 188 195 197 198 195 186 180 179 177 178 188 196 194 191 194 199 196 189 191 208 213 215 221 226 221 216 214 213 212 212 211 211 211 211 212 210 207 207
348 344 342 342 342 346 351 350 348 350 349 350 352 351 353 355 355 359 357 351 353 2 7 4 359 7 8 355 5 46 62 53 45 71 101 125 148 156 162 166 168 165 154 147 158 164 164 162 161 173 186 190 193 196 192 184 183 185 182 182 187 192 191 186 188 203 200 189 176 176 200 215 217 218 213 209 210 213 212 211 211 211 210 211 211 207 204 206
349 344 341 344 344 346 351 353 351 352 353 352 353 350 351 355 352 354 360 358 358 4 8 6 2 10 17 7 0 23 48 53 50 90 126 137 149 154 157 158 163 168 161 152 157 162 166 169 165 172 186 190 191 195 194 188 188 190 189 187 187 191 190 184 180 200 202 195 186 175 203 215 212 207 206 204 206 210 209 209 211 210 209 209 208 205 204 206
351 345 341 345 348 347 349 354 354 355 359 359 354 347 347 353 352 350 356 355 353 2 10 6 4 12 18 17 15 7 21 38 38 84 132 134 145 150 152 155 158 164 162 155 155 158 164 170 164 166 183 196 198 199 197 195 193 193 193 192 190 190 189 185 177 179 197 197 191 191 209 214 210 207 206 204 205 207 207 207 208 207 207 207 205 203 204 206
351 348 344 345 350 349 349 353 355 355 1 0 353 347 345 350 352 349 349 350 352 4 16 8 6 19 27 40 49 23 356 13 24 59 129 128 136 144 147 151 154 159 156 152 153 155 155 159 160 163 176 194 202 201 197 196 196 195 195 195 193 189 188 187 182 176 180 182 183 194 204 201 201 207 207 204 205 206 206 206 206 205 204 203 202 202 204 206
350 349 348 346 351 352 350 352 355 355 356 354 350 349 349 351 355 356 352 353 358 10 14 2 357 13 34 53 61 43 11 5 19 57 127 131 137 146 150 151 153 154 151 151 157 156 149 150 156 163 173 183 194 201 200 197 195 194 194 195 194 190 189 189 186 180 172 170 180 192 195 188 192 202 203 203 205 205 205 205 204 204 202 200 200 201 203 205
351 347 346 347 351 354 352 352 355 354 350 351 354 355 354 355 359 3 3 2 5 9 9 4 352 348 1 17 39 49 39 15 18 63 133 135 138 148 151 151 153 152 151 154 157 154 152 156 158 159 165 171 179 193 202 201 197 195 194 194 195 192 190 190 188 179 169 177 188 193 192 189 190 192 198 202 203 203 204 204 203 202 200 199 199 200 202 204
352 348 346 347 349 353 353 353 356 356 352 355 359 356 356 2 4 3 6 13 19 18 14 8 359 354 356 3 19 39 37 20 26 90 148 147 148 154 153 152 153 150 152 156 154 154 161 163 162 161 161 167 172 179 193 199 199 199 197 194 194 194 193 192 190 184 175 179 188 192 194 196 194 192 197 201 201 200 200 200 200 200 198 198 199 200 201 202
351 349 348 348 348 351 355 354 355 358 357 357 359 358 1 10 10 4 10 23 29 25 15 7 8 10 2 357 14 39 37 52 80 133 156 156 155 157 154 153 153 149 153 158 154 155 163 161 161 167 170 178 183 182 189 194 196 198 199 196 195 196 197 197 196 193 185 180 182 186 192 198 199 199 200 201 200 197 196 197 198 197 197 197 198 199 200 201
350 348 347 349 349 350 355 357 356 357 360 1 360 1 7 18 19 16 23 33 33 23 14 12 16 18 4 351 358 29 52 109 124 142 156 155 151 152 152 152 152 151 153 156 153 153 161 161 162 169 176 183 187 188 191 191 191 197 201 200 199 200 200 199 197 194 192 187 182 181 184 191 196 197 199 200 199 195 193 193 194 195 196 197 197 198 199 199
Height
5740 5738 5737 5735 5734 5733 5732 5731 5730 5729 5728 5727 5727 5726 5726 5726 5725 5725 5725 5725 5725 5725 5725 5726 5726 5727 5728 5729 5730 5732 5733 5734 5736 5738 5741 5744 5746 5747 5751 5755 5758 5760 5763 5766 5768 5771 5774 5777 5779 5783 5785 5788 5791 5795 5798 5799 5802 5803 5803 5804 5803 5807 5812 5815 5819 5824 5829 5833 5837 5838 5840 5842 5836 5837 5846 5843 5842 5846 5845 5845 5847 5848 5853 5853 5849 5852 5857 5859
5738 5736 5734 5733 5731 5730 5728 5727 5726 5725 5724 5723 5722 5721 5721 5720 5720 5719 5719 5719 5719 5719 5719 5719 5719 5720 5720 5721 5723 5724 5725 5727 5728 5731 5734 5737 5739 5740 5744 5748 5751 5752 5756 5759 5761 5764 5767 5771 5774 5776 5779 5783 5786 5789 5793 5794 5795 5796 5798 5799 5798 5803 5808 5811 5817 5821 5825 5828 5832 5834 5835 5839 5834 5834 5841 5840 5839 5842 5843 5844 5846 5847 5850 5849 5849 5851 5853 5856
5735 5733 5731 5729 5728 5726 5725 5723 5722 5720 5719 5718 5717 5716 5715 5714 5713 5713 5713 5712 5712 5712 5712 5713 5713 5713 5713 5713 5715 5716 5717 5719 5720 5725 5727 5729 5732 5734 5737 5740 5744 5746 5748 5751 5755 5758 5761 5765 5767 5770 5773 5776 5780 5783 5787 5787 5787 5791 5793 5792 5794 5801 5805 5808 5814 5816 5820 5823 5827 5830 5831 5835 5833 5831 5836 5837 5837 5839 5841 5843 5843 5845 5848 5847 5847 5849 5850 5853
5732 5730 5728 5726 5724 5722 5720 5719 5717 5715 5714 5713 5711 5710 5709 5708 5707 5707 5706 5706 5705 5706 5706 5706 5706 5706 5706 5706 5707 5707 5710 5710 5712 5717 5718 5720 5725 5727 5730 5733 5737 5739 5742 5745 5748 5751 5754 5759 5761 5764 5768 5770 5774 5777 5780 5781 5781 5786 5786 5787 5793 5799 5800 5804 5809 5812 5816 5817 5821 5826 5826 5829 5831 5829 5832 5833 5834 5837 5839 5841 5842 5842 5845 5845 5842 5845 5848 5850
5728 5726 5724 5721 5719 5717 5715 5713 5711 5710 5708 5707 5705 5704 5703 5702 5701 5700 5699 5699 5699 5699 5698 5698 5698 5698 5698 5699 5699 5699 5702 5700 5703 5709 5709 5712 5717 5719 5723 5725 5730 5733 5735 5738 5741 5745 5748 5752 5754 5757 5761 5764 5768 5770 5772 5776 5777 5779 5780 5785 5792 5795 5795 5800 5804 5807 5811 5812 5815 5821 5823 5825 5826 5827 5828 5829 5830 5834 5837 5838 5841 5840 5842 5843 5836 5839 5845 5848
5723 5721 5719 5717 5714 5712 5709 5707 5705 5704 5702 5700 5699 5698 5697 5696 5694 5693 5693 5692 5692 5692 5691 5691 5691 5690 5690 5691 5691 5691 5693 5691 5694 5701 5701 5704 5708 5710 5714 5717 5722 5726 5728 5732 5734 5738 5741 5744 5746 5749 5755 5758 5761 5764 5767 5771 5772 5772 5776 5782 5787 5789 5790 5795 5800 5802 5804 5806 5810 5815 5819 5820 5821 5824 5824 5825 5826 5830 5833 5833 5836 5837 5837 5838 5831 5835 5844 5845
5718 5715 5713 5711 5708 5706 5704 5702 5699 5697 5696 5694 5693 5691 5690 5689 5688 5687 5686 5686 5685 5685 5685 5684 5683 5683 5683 5683 5683 5683 5684 5683 5684 5691 5693 5696 5699 5701 5704 5708 5713 5717 5721 5724 5727 5730 5734 5737 5739 5744 5748 5751 5755 5759 5762 5765 5766 5767 5772 5778 5782 5784 5787 5790 5794 5797 5797 5799 5803 5808 5812 5814 5817 5819 5820 5823 5821 5823 5829 5828 5833 5833 5828 5830 5830 5835 5842 5842
5714 5711 5708 5705 5702 5699 5697 5695 5693 5691 5689 5687 5685 5684 5682 5681 5680 5680 5679 5679 5678 5678 5678 5677 5677 5676 5676 5676 5676 5675 5676 5675 5675 5681 5685 5687 5691 5692 5695 5699 5703 5708 5712 5716 5720 5723 5726 5730 5734 5737 5740 5744 5750 5753 5756 5759 5760 5762 5768 5773 5776 5779 5782 5784 5788 5791 5790 5792 5797 5802 5807 5811 5814 5814 5816 5819 5815 5817 5824 5825 5830 5827 5820 5827 5832 5834 5838 5840
5711 5708 5705 5701 5698 5694 5691 5688 5685 5683 5681 5679 5678 5676 5675 5673 5672 5671 5671 5671 5670 5670 5670 5670 5670 5669 5670 5669 5669 5668 5668 5667 5668 5672 5674 5677 5681 5683 5686 5690 5694 5698 5703 5707 5712 5715 5719 5724 5727 5731 5734 5739 5743 5746 5750 5752 5753 5758 5764 5767 5770 5774 5776 5778 5782 5786 5785 5786 5792 5798 5803 5808 5810 5810 5811 5812 5811 5815 5819 5822 5825 5820 5819 5829 5832 5831 5833 5837
5708 5705 5701 5698 5694 5691 5687 5684 5681 5678 5675 5673 5672 5670 5669 5668 5666 5665 5664 5663 5663 5662 5662 5662 5662 5662 5663 5663 5663 5662 5659 5659 5661 5663 5664 5666 5670 5674 5677 5681 5685 5689 5693 5698 5703 5707 5712 5716 5720 5724 5727 5731 5735 5739 5743 5745 5748 5755 5758 5760 5763 5769 5771 5771 5775 5779 5779 5782 5787 5793 5798 5802 5805 5804 5804 5807 5810 5813 5812 5817 5820 5817 5822 5828 5828 5828 5829 5833
5704 5701 5697 5694 5690 5687 5684 5681 5678 5674 5671 5669 5667 5666 5665 5663 5662 5660 5659 5658 5657 5656 5655 5655 5654 5655 5655 5656 5657 5654 5651 5653 5654 5654 5655 5657 5660 5664 5668 5672 5676 5680 5684 5688 5694 5698 5703 5708 5712 5715 5717 5723 5728 5730 5735 5739 5743 5749 5750 5752 5757 5763 5765 5762 5766 5774 5777 5779 5783 5788 5792 5795 5798 5798 5799 5804 5807 5807 5807 5813 5817 5816 5822 5824 5824 5826 5824 5829
5700 5697 5693 5689 5686 5683 5679 5676 5674 5671 5668 5666 5663 5662 5660 5658 5656 5655 5654 5653 5652 5651 5650 5649 5648 5649 5648 5650 5650 5646 5646 5646 5646 5647 5647 5649 5652 5655 5659 5663 5667 5670 5675 5679 5685 5689 5694 5699 5702 5706 5712 5718 5721 5724 5730 5734 5738 5743 5744 5746 5752 5757 5758 5755 5761 5771 5773 5775 5779 5783 5785 5787 5791 5793 5795 5801 5802 5803 5806 5811 5814 5815 5819 5820 5821 5823 5821 5825
5696 5692 5688 5685 5681 5678 5675 5672 5669 5667 5664 5662 5659 5657 5655 5654 5652 5650 5649 5648 5647 5646 5645 5644 5643 5643 5643 5644 5641 5638 5639 5639 5639 5640 5640 5641 5643 5646 5649 5652 5656 5660 5665 5670 5675 5680 5684 5689 5693 5700 5707 5710 5714 5720 5725 5728 5732 5737 5738 5739 5745 5750 5751 5751 5757 5766 5768 5770 5775 5778 5779 5781 5787 5791 5793 5797 5798 5800 5805 5808 5811 5812 5815 5817 5818 5820 5819 5820
5691 5687 5684 5680 5677 5674 5671 5668 5665 5663 5660 5657 5655 5653 5651 5649 5648 5646 5644 5643 5641 5640 5639 5638 5638 5636 5637 5637 5634 5631 5631 5631 5632 5632 5632 5633 5634 5636 5638 5641 5646 5651 5656 5660 5666 5671 5675 5681 5686 5693 5698 5701 5709 5715 5717 5721 5726 5730 5731 5733 5739 5743 5745 5748 5753 5760 5762 5764 5771 5773 5773 5778 5785 5788 5790 5793 5794 5797 5801 5803 5807 5809 5811 5813 5814 5816 5816 5816
5687 5683 5679 5675 5672 5669 5667 5664 5661 5659 5656 5654 5651 5649 5647 5645 5643 5641 5640 5638 5636 5635 5634 5632 5631 5630 5630 5629 5627 5625 5624 5623 5625 5625 5624 5624 5624 5625 5626 5631 5637 5642 5647 5651 5656 5661 5666 5672 5678 5685 5692 5696 5703 5706 5708 5714 5719 5722 5725 5727 5734 5738 5742 5746 5748 5753 5757 5760 5767 5768 5768 5774 5780 5783 5787 5788 5789 5794 5797 5799 5803 5806 5807 5809 5810 5812 5813 5812
5682 5678 5674 5671 5668 5665 5662 5660 5658 5655 5652 5650 5647 5645 5643 5640 5639 5637 5635 5633 5631 5629 5627 5626 5624 5623 5622 5621 5619 5618 5617 5616 5617 5617 5617 5616 5614 5613 5615 5621 5627 5632 5638 5642 5646 5651 5657 5664 5669 5677 5684 5687 5693 5698 5702 5708 5712 5715 5719 5723 5729 5733 5738 5742 5742 5746 5753 5757 5761 5763 5764 5768 5775 5780 5783 5783 5786 5791 5793 5796 5800 5802 5804 5805 5806 5807 5809 5810
5677 5674 5670 5666 5664 5661 5658 5656 5654 5652 5649 5646 5643 5641 5638 5636 5635 5633 5631 5629 5626 5623 5621 5619 5617 5615 5614 5613 5612 5610 5608 5609 5609 5608 5608 5607 5605 5604 5606 5611 5616 5622 5628 5633 5636 5641 5648 5655 5661 5668 5673 5677 5686 5692 5694 5699 5704 5709 5715 5720 5724 5729 5735 5738 5739 5740 5746 5753 5755 5757 5759 5763 5770 5775 5778 5781 5783 5787 5790 5794 5797 5798 5800 5801 5802 5803 5805 5806
5673 5669 5665 5662 5659 5657 5654 5652 5651 5648 5645 5642 5639 5637 5634 5633 5631 5629 5627 5625 5621 5617 5614 5613 5611 5609 5606 5604 5604 5603 5601 5601 5602 5600 5599 5598 5597 5596 5597 5599 5604 5610 5617 5623 5627 5632 5640 5646 5652 5658 5663 5668 5676 5681 5683 5691 5701 5706 5710 5716 5720 5725 5729 5733 5738 5736 5736 5747 5752 5752 5754 5759 5766 5770 5774 5779 5780 5783 5787 5791 5793 5794 5795 5796 5798 5799 5800 5802
5669 5665 5661 5658 5655 5653 5651 5649 5648 5645 5642 5639 5636 5633 5630 5629 5627 5624 5623 5621 5617 5612 5608 5605 5605 5605 5602 5596 5596 5596 5596 5595 5594 5592 5591 5590 5589 5588 5588 5587 5591 5598 5604 5611 5618 5624 5631 5636 5640 5644 5651 5660 5670 5675 5681 5693 5701 5703 5707 5713 5717 5721 5725 5728 5735 5734 5729 5739 5749 5748 5749 5756 5763 5766 5771 5777 5777 5779 5784 5787 5789 5789 5790 5790 5793 5796 5796 5799
5665 5661 5657 5655 5652 5650 5648 5646 5644 5642 5639 5636 5632 5629 5627 5625 5623 5620 5619 5617 5613 5609 5604 5599 5597 5599 5597 5593 5589 5588 5588 5588 5588 5586 5583 5582 5582 5580 5578 5578 5580 5584 5591 5600 5609 5616 5622 5625 5628 5637 5649 5659 5667 5673 5680 5691 5696 5699 5704 5709 5712 5718 5722 5724 5731 5735 5727 5731 5744 5748 5749 5753 5759 5764 5768 5772 5773 5774 5779 5782 5783 5784 5785 5785 5789 5793 5794 5797
5661 5657 5654 5651 5649 5647 5645 5643 5641 5638 5635 5632 5629 5626 5624 5621 5619 5616 5614 5612 5608 5602 5600 5596 5592 5591 5591 5588 5586 5583 5580 5580 5580 5579 5577 5576 5575 5573 5570 5568 5569 5572 5581 5592 5600 5606 5609 5612 5621 5637 5649 5655 5661 5667 5674 5683 5689 5696 5700 5703 5708 5713 5719 5722 5727 5732 5724 5725 5740 5747 5747 5749 5753 5759 5763 5766 5768 5769 5773 5777 5778 5779 5781 5782 5786 5790 5792 5795
5657 5654 5651 5648 5645 5644 5642 5640 5638 5634 5631 5628 5626 5623 5620 5618 5615 5611 5608 5608 5604 5597 5594 5592 5588 5585 5584 5582 5580 5577 5574 5573 5573 5572 5571 5570 5568 5567 5563 5559 5559 5563 5572 5580 5586 5591 5593 5603 5621 5636 5642 5647 5654 5660 5667 5676 5684 5690 5693 5697 5702 5706 5716 5722 5721 5724 5722 5723 5737 5743 5743 5746 5748 5754 5759 5761 5763 5766 5768 5772 5774 5775 5776 5778 5783 5786 5789 5791
5654 5650 5647 5645 5643 5640 5638 5637 5634 5631 5628 5624 5622 5619 5617 5614 5610 5607 5603 5602 5600 5594 5589 5588 5584 5581 5579 5576 5574 5572 5569 5568 5567 5566 5565 5564 5562 5560 5556 5554 5555 5557 5562 5567 5573 5578 5585 5603 5623 5629 5632 5640 5646 5654 5662 5670 5678 5683 5685 5692 5698 5701 5712 5717 5713 5718 5721 5722 5732 5739 5740 5742 5745 5748 5753 5756 5758 5761 5763 5767 5770 5771 5772 5775 5780 5783 5786 5786
5651 5647 5644 5642 5640 5637 5635 5633 5630 5627 5624 5621 5618 5616 5613 5609 5606 5602 5599 5596 5594 5590 5586 5584 5580 5577 5574 5571 5568 5566 5564 5562 5562 5561 5560 5559 5557 5554 5552 5551 5551 5553 5555 5561 5566 5572 5585 5606 5618 5618 5624 5633 5639 5647 5654 5661 5671 5675 5679 5689 5695 5698 5706 5712 5713 5716 5719 5722 5728 5736 5736 5737 5741 5744 5748 5751 5753 5756 5759 5762 5765 5767 5769 5772 5776 5779 5781 5782
5648 5644 5641 5639 5637 5635 5632 5630 5627 5623 5620 5617 5614 5612 5609 5605 5602 5598 5595 5591 5588 5585 5583 5580 5576 5573 5570 5566 5563 5561 5559 5558 5558 5557 5554 5554 5552 5550 5549 5547 5547 5550 5553 5558 5562 5568 5584 5600 5605 5608 5617 5625 5631 5639 5645 5655 5666 5669 5674 5685 5692 5696 5701 5709 5715 5713 5713 5720 5724 5730 5733 5732 5737 5740 5743 5747 5749 5752 5755 5758 5762 5764 5766 5769 5772 5775 5776 5778
5645 5641 5638 5636 5635 5632 5629 5626 5624 5620 5617 5614 5611 5608 5605 5602 5598 5594 5591 5588 5584 5581 5579 5576 5572 5568 5565 5562 5559 5556 5554 5554 5553 5552 5550 5549 5548 5547 5546 5545 5546 5549 5551 5557 5561 5567 5579 5589 5593 5601 5610 5618 5625 5632 5640 5651 5661 5663 5670 5682 5687 5693 5699 5704 5711 5708 5708 5717 5720 5725 5730 5730 5734 5737 5740 5743 5745 5748 5751 5754 5758 5761 5763 5765 5769 5771 5773 5776
5642 5639 5636 5634 5632 5630 5627 5623 5620 5617 5614 5611 5608 5605 5602 5598 5594 5591 5588 5585 5581 5578 5575 5572 5568 5564 5561 5557 5555 5553 5551 5550 5549 5548 5547 5545 5545 5543 5542 5543 5546 5548 5551 5556 5559 5563 5573 5581 5587 5595 5604 5612 5618 5626 5635 5645 5655 5658 5666 5677 5681 5688 5694 5698 5706 5706 5706 5715 5718 5721 5727 5728 5730 5734 5736 5739 5742 5744 5747 5751 5754 5756 5760 5762 5766 5769 5771 5775
5639 5636 5633 5631 5629 5627 5625 5621 5617 5614 5611 5608 5605 5602 5599 5595 5591 5588 5585 5582 5579 5575 5572 5569 5565 5561 5558 5554 5552 5550 5547 5546 5545 5544 5543 5542 5541 5541 5540 5542 5544 5548 5552 5554 5557 5563 5570 5576 5582 5590 5598 5606 5614 5623 5633 5642 5650 5656 5662 5671 5676 5684 5690 5695 5702 5704 5705 5712 5715 5716 5722 5724 5725 5730 5734 5734 5737 5739 5742 5747 5749 5753 5757 5760 5764 5767 5769 5772
5637 5634 5631 5629 5627 5624 5622 5618 5615 5611 5608 5606 5603 5599 5596 5592 5589 5585 5583 5579 5576 5573 5569 5566 5563 5559 5555 5552 5549 5547 5544 5543 5542 5541 5540 5539 5539 5539 5539 5540 5542 5547 5550 5553 5558 5564 5569 5573 5580 5588 5596 5603 5612 5622 5631 5638 5646 5653 5659 5665 5673 5682 5688 5691 5696 5700 5703 5707 5711 5713 5716 5720 5722 5728 5732 5730 5731 5736 5738 5743 5747 5750 5755 5757 5760 5764 5765 5768
5635 5631 5629 5626 5624 5621 5619 5616 5612 5609 5606 5603 5600 5597 5594 5590 5586 5583 5580 5578 5574 5571 5567 5563 5559 5556 5553 5550 5546 5543 5541 5540 5539 5538 5538 5536 5536 5537 5538 5539 5541 5545 5548 5552 5557 5564 5570 5574 5577 5585 5593 5601 5609 5617 5624 5632 5641 5651 5656 5660 5671 5679 5682 5685 5692 5698 5701 5701 5706 5712 5713 5716 5720 5725 5729 5727 5728 5733 5736 5740 5744 5748 5750 5753 5757 5760 5762 5765
5632 5629 5627 5624 5622 5619 5616 5613 5610 5606 5603 5601 5598 5594 5591 5588 5584 5581 5578 5575 5573 5569 5565 5561 5557 5553 5550 5547 5544 5540 5539 5538 5536 5535 5535 5534 5534 5536 5537 5538 5540 5544 5547 5551 5556 5562 5568 5571 5575 5583 5592 5599 5605 5611 5620 5629 5637 5647 5654 5657 5665 5672 5676 5682 5688 5692 5695 5695 5701 5710 5711 5711 5715 5722 5726 5725 5725 5729 5734 5738 5742 5744 5746 5750 5754 5758 5760 5763
5630 5627 5624 5622 5620 5617 5613 5610 5607 5604 5601 5598 5595 5592 5589 5586 5583 5579 5576 5573 5571 5568 5564 5560 5555 5551 5548 5545 5542 5539 5537 5536 5534 5534 5533 5533 5534 5535 5536 5538 5540 5544 5548 5551 5556 5561 5564 5570 5577 5584 5589 5595 5600 5609 5618 5624 5632 5643 5649 5651 5658 5665 5671 5677 5682 5685 5690 5693 5698 5705 5707 5706 5711 5718 5723 5724 5723 5726 5732 5736 5737 5741 5745 5748 5752 5755 5757 5760
5628 5625 5623 5621 5618 5615 5612 5609 5605 5602 5599 5596 5593 5591 5588 5584 5581 5577 5574 5571 5569 5565 5562 5558 5553 5549 5545 5543 5541 5538 5536 5534 5533 5532 5532 5532 5533 5535 5537 5538 5541 5546 5550 5553 5557 5561 5564 5570 5577 5581 5585 5590 5596 5606 5613 5617 5627 5637 5641 5645 5653 5660 5664 5670 5677 5682 5686 5690 5694 5700 5703 5703 5708 5715 5719 5721 5719 5721 5728 5731 5732 5738 5742 5745 5750 5752 5754 5757
5626 5623 5621 5619 5617 5614 5611 5607 5604 5600 5598 5595 5592 5589 5586 5583 5579 5576 5573 5570 5567 5564 5560 5556 5552 5548 5544 5542 5540 5537 5535 5533 5532 5531 5531 5531 5532 5534 5536 5538 5540 5545 5550 5554 5557 5560 5563 5567 5573 5578 5584 5588 5594 5603 5610 5616 5628 5635 5638 5645 5654 5659 5662 5669 5676 5679 5683 5688 5692 5697 5699 5701 5708 5712 5714 5716 5715 5717 5724 5727 5730 5736 5739 5742 5746 5749 5751 5754
5625 5622 5619 5617 5615 5612 5609 5606 5602 5599 5596 5593 5590 5587 5584 5581 5578 5575 5572 5569 5566 5563 5559 5555 5551 5547 5544 5542 5540 5537 5534 5532 5531 5531 5530 5530 5532 5534 5536 5538 5540 5543 5546 5551 5557 5561 5564 5569 5573 5579 5585 5589 5595 5603 5609 5618 5628 5633 5636 5645 5653 5659 5664 5670 5675 5678 5681 5686 5690 5693 5695 5699 5705 5706 5707 5710 5711 5715 5723 5727 5729 5734 5737 5740 5743 5745 5748 5752
5623 5620 5618 5615 5613 5611 5607 5604 5601 5598 5595 5592 5589 5585 5582 5579 5576 5573 5571 5568 5564 5561 5558 5555 5550 5547 5544 5541 5539 5536 5534 5532 5530 5530 5530 5530 5532 5534 5536 5538 5540 5543 5546 5550 5555 5560 5566 5570 5574 5579 5585 5590 5596 5602 5607 5615 5625 5628 5632 5641 5650 5659 5665 5668 5673 5677 5679 5684 5687 5688 5691 5696 5700 5700 5702 5706 5709 5715 5724 5726 5727 5731 5735 5738 5740 5743 5747 5749
5621 5618 5616 5613 5612 5609 5606 5603 5599 5596 5594 5591 5588 5585 5581 5578 5575 5572 5570 5566 5563 5560 5557 5554 5550 5547 5544 5541 5538 5536 5534 5532 5530 5529 5530 5531 5531 5533 5536 5538 5540 5544 5547 5551 5556 5561 5567 5571 5573 5577 5583 5588 5595 5602 5607 5615 5622 5625 5630 5640 5649 5658 5664 5666 5671 5674 5676 5683 5685 5684 5687 5693 5697 5698 5699 5704 5710 5717 5722 5723 5724 5728 5732 5735 5739 5742 5745 5746
5620 5617 5615 5612 5610 5608 5605 5601 5598 5595 5593 5590 5587 5584 5581 5578 5575 5572 5569 5566 5563 5560 5556 5553 5550 5547 5544 5542 5540 5537 5535 5533 5531 5530 5530 5531 5532 5533 5536 5539 5541 5544 5547 5551 5556 5560 5565 5570 5573 5578 5582 5587 5594 5601 5606 5612 5619 5625 5633 5641 5646 5653 5659 5662 5666 5669 5673 5680 5682 5680 5684 5690 5694 5695 5696 5702 5710 5715 5717 5719 5721 5725 5729 5733 5737 5740 5741 5743
5619 5617 5614 5611 5609 5606 5603 5600 5597 5594 5592 5590 5587 5583 5580 5577 5574 5571 5568 5565 5562 5559 5557 5554 5550 5548 5546 5542 5540 5538 5536 5534 5533 5531 5530 5530 5532 5534 5537 5540 5543 5546 5548 5551 5555 5559 5564 5569 5573 5578 5583 5588 5592 5595 5601 5607 5614 5624 5633 5639 5644 5651 5656 5658 5661 5665 5671 5676 5678 5680 5683 5687 5691 5694 5694 5700 5708 5712 5714 5717 5720 5723 5727 5731 5735 5736 5738 5741
5618 5616 5613 5611 5608 5605 5602 5599 5596 5593 5592 5589 5586 5583 5580 5576 5573 5570 5567 5565 5562 5559 5557 5555 5551 5549 5546 5543 5540 5538 5537 5535 5534 5532 5531 5531 5532 5535 5538 5541 5544 5547 5549 5552 5554 5558 5563 5569 5573 5578 5584 5589 5591 5593 5598 5604 5611 5619 5627 5634 5641 5647 5652 5655 5659 5664 5669 5673 5676 5679 5683 5685 5689 5692 5693 5698 5706 5710 5712 5715 5718 5722 5726 5729 5731 5733 5735 5738
5616 5614 5612 5610 5607 5604 5601 5598 5595 5593 5591 5588 5585 5582 5579 5576 5573 5570 5567 5565 5562 5559 5557 5555 5552 5550 5547 5544 5541 5540 5538 5536 5535 5534 5533 5533 5534 5537 5540 5543 5545 5548 5551 5554 5556 5558 5563 5568 5573 5578 5582 5586 5592 5596 5600 5605 5612 5618 5625 5633 5640 5643 5647 5653 5657 5662 5668 5672 5675 5678 5683 5686 5687 5689 5693 5698 5704 5708 5711 5713 5717 5720 5723 5725 5728 5730 5733 5736
5616 5613 5611 5609 5607 5604 5601 5597 5594 5592 5590 5587 5584 5582 5579 5576 5573 5571 5568 5565 5563 5560 5558 5556 5553 5550 5548 5545 5543 5541 5538 5538 5537 5536 5535 5535 5536 5538 5542 5546 5548 5550 5553 5555 5558 5561 5564 5568 5573 5579 5584 5589 5593 5597 5600 5606 5613 5619 5625 5633 5640 5642 5644 5651 5657 5661 5666 5672 5676 5678 5683 5686 5685 5686 5692 5697 5702 5706 5707 5710 5714 5717 5720 5722 5724 5727 5730 5734
5616 5613 5610 5608 5606 5604 5601 5598 5594 5591 5589 5586 5584 5581 5578 5576 5573 5571 5568 5566 5563 5561 5559 5556 5553 5551 5549 5546 5544 5542 5541 5541 5540 5538 5537 5538 5539 5540 5544 5548 5550 5552 5555 5557 5560 5563 5566 5570 5573 5579 5586 5592 5595 5598 5602 5608 5612 5617 5623 5630 5636 5639 5643 5651 5658 5660 5664 5671 5676 5679 5681 5681 5682 5686 5691 5695 5699 5701 5703 5706 5711 5713 5716 5718 5721 5725 5729 5732
5615 5613 5611 5609 5606 5603 5600 5597 5594 5592 5589 5587 5584 5581 5578 5575 5573 5571 5568 5566 5564 5562 5559 5557 5555 5552 5549 5547 5546 5544 5543 5543 5542 5541 5540 5541 5542 5543 5546 5548 5551 5553 5555 5557 5561 5565 5568 5571 5575 5578 5582 5588 5592 5595 5599 5604 5609 5614 5619 5625 5632 5637 5642 5650 5657 5660 5663 5669 5674 5678 5680 5679 5681 5686 5689 5692 5696 5698 5700 5704 5707 5710 5713 5716 5719 5723 5726 5729
5614 5611 5610 5608 5605 5602 5600 5597 5594 5592 5590 5587 5584 5581 5578 5576 5573 5571 5569 5566 5564 5562 5560 5557 5556 5554 5551 5549 5548 5546 5545 5545 5544 5544 5543 5543 5544 5546 5548 5550 5552 5554 5556 5558 5561 5565 5569 5572 5574 5578 5582 5585 5587 5591 5596 5602 5607 5613 5619 5624 5630 5636 5640 5647 5655 5659 5661 5665 5671 5677 5678 5678 5681 5685 5686 5689 5692 5694 5698 5701 5704 5707 5711 5713 5717 5721 5723 5726
5614 5611 5608 5607 5604 5601 5598 5596 5594 5591 5589 5586 5584 5581 5578 5576 5574 5571 5569 5567 5564 5562 5560 5558 5556 5554 5553 5551 5549 5548 5548 5547 5546 5545 5545 5545 5546 5548 5550 5551 5553 5556 5558 5560 5562 5565 5570 5573 5575 5579 5586 5591 5594 5598 5603 5608 5611 5615 5620 5624 5629 5634 5639 5644 5651 5656 5659 5663 5670 5674 5675 5676 5680 5682 5684 5687 5689 5692 5695 5698 5701 5705 5708 5711 5715 5718 5722 5724
5614 5611 5609 5607 5604 5601 5598 5595 5593 5590 5588 5586 5584 5582 5579 5576 5574 5571 5569 5567 5564 5562 5560 5559 5557 5555 5554 5553 5551 5550 5549 5548 5548 5547 5546 5546 5548 5550 5551 5553 5555 5558 5560 5563 5566 5569 5571 5575 5577 5581 5587 5594 5598 5601 5604 5607 5612 5615 5619 5623 5627 5632 5637 5641 5648 5654 5659 5664 5670 5672 5672 5675 5677 5679 5681 5684 5687 5690 5693 5696 5699 5703 5706 5709 5713 5716 5720 5722
5613 5610 5608 5607 5604 5601 5598 5595 5593 5590 5588 5586 5584 5582 5578 5575 5573 5572 5570 5567 5564 5563 5561 5559 5558 5556 5555 5554 5552 5551 5551 5550 5549 5549 5548 5548 5549 5552 5554 5555 5557 5560 5562 5564 5568 5571 5574 5577 5579 5581 5585 5591 5596 5600 5602 5606 5611 5615 5618 5622 5626 5630 5635 5639 5646 5654 5660 5664 5667 5669 5670 5673 5675 5676 5679 5682 5684 5687 5690 5694 5697 5701 5704 5708 5711 5715 5718 5721
5612 5609 5607 5606 5604 5601 5598 5596 5593 5591 5588 5586 5584 5581 5578 5575 5574 5572 5570 5568 5565 5563 5561 5560 5558 5556 5555 5554 5552 5552 5552 5551 5551 5550 5550 5549 5551 5553 5556 5557 5559 5561 5564 5566 5569 5573 5576 5579 5581 5584 5587 5591 5596 5600 5604 5607 5611 5615 5618 5622 5626 5629 5634 5638 5644 5651 5658 5661 5663 5665 5668 5671 5673 5675 5677 5680 5683 5685 5689 5692 5696 5699 5703 5706 5709 5713 5716 5719
5613 5610 5607 5605 5603 5601 5598 5596 5593 5591 5589 5586 5583 5581 5578 5576 5574 5572 5570 5568 5566 5564 5563 5561 5558 5556 5554 5553 5553 5552 5552 5552 5552 5552 5551 5551 5551 5553 5556 5559 5561 5563 5565 5568 5571 5574 5577 5580 5583 5586 5589 5592 5596 5600 5603 5607 5611 5614 5618 5622 5625 5628 5632 5636 5640 5646 5651 5655 5658 5663 5666 5669 5672 5674 5676 5679 5681 5684 5687 5691 5695 5698 5701 5705 5708 5711 5715 5718
5612 5610 5608 5606 5603 5601 5598 5596 5593 5591 5589 5586 5584 5582 5580 5577 5575 5573 5571 5569 5567 5566 5564 5561 5559 5556 5555 5554 5553 5553 5552 5552 5553 5553 5552 5552 5552 5554 5556 5560 5562 5564 5566 5570 5573 5575 5578 5581 5584 5587 5589 5592 5595 5599 5602 5606 5610 5614 5617 5620 5624 5627 5631 5634 5638 5644 5650 5654 5658 5663 5667 5669 5671 5673 5675 5678 5680 5683 5686 5690 5693 5697 5700 5703 5707 5710 5714 5717
5611 5609 5607 5605 5603 5601 5599 5596 5593 5591 5589 5587 5584 5582 5580 5578 5576 5574 5572 5570 5569 5567 5565 5562 5560 5558 5556 5555 5554 5553 5553 5553 5553 5554 5554 5555 5555 5557 5559 5561 5563 5565 5568 5571 5574 5576 5578 5582 5585 5588 5590 5593 5597 5601 5603 5606 5610 5613 5616 5620 5625 5629 5632 5636 5641 5647 5653 5656 5659 5662 5666 5668 5670 5672 5674 5677 5679 5682 5685 5689 5692 5696 5699 5702 5705 5709 5712 5715